Location: Lombard
(41.8800°N, 88.0080°W)
Time: 18:56:21
(UTC-06:00)

Vanguard 3 - Pass Details

Date: 14 December 2023
Orbit: 508 x 3239 km, 33.4° (Epoch: 23 February)

Event Time Altitude Azimuth Distance (km) Brightness Sun altitude
Rises 20:43:03 0° 259° (W) 7,095 12.6 -47.7°
Reaches altitude 10° 20:48:14 10° 256° (WSW) 5,886 11.9 -48.6°
Enters shadow 21:01:18 49° 227° (SW) 2,904 9.8 -51.0°
